Houghton Lake, MI

12:08 PM EDT on October 22, 2017 (GMT -0400)
Roscommon County

Weather History for KHTL - February, 2012

Change the Weather History Date:

Tuesday, February 7, 2012

  Actual Average Record
Temperature  
Mean Temperature 23 °F 18 °F  
Max Temperature 33 °F 28 °F 52 °F (1925)
Min Temperature 13 °F 9 °F -24 °F (1936)
Degree Days  
Heating Degree Days 42 47  
Month to date heating degree days 244 329  
Since 1 July heating degree days 4137 4941  
Moisture  
Dew Point 17 °F    
Average Humidity 56    
Maximum Humidity 78    
Minimum Humidity 33    
Precipitation  
Precipitation T in 0.04 in 0.70 in (1928)
Month to date precipitation T 0.26  
Year to date precipitation 2.49 1.77  
Snow  
Snow T in 0.40 in 4.60 in (2013)
Month to date snowfall T 3.4  
Since 1 July snowfall 34.5 45.5  
Snow Depth 10.00 in    
Sea Level Pressure  
Sea Level Pressure 30.29 in    
Wind  
Wind Speed 7 mph (NNW)    
Max Wind Speed 15 mph    
Max Gust Speed 20 mph    
Visibility 10 miles    
Events Snow    
T = Trace of Precipitation, MM = Missing Value Source: NWS Daily Summary

Daily Weather History Graph

Daily Weather History Graph

Search for Another Location

Airport or City:

Trip Planner

Search our weather history database for the weather conditions in past years. The results will help you decide how hot, cold, wet, or windy it might be!

Date:

Astronomy

Feb. 07, 2012 Rise Set
Actual Time 7:50 AM EST 5:55 PM EST
Civil Twilight 7:19 AM EST 6:26 PM EST
Nautical Twilight 6:45 AM EST 7:00 PM EST
Astronomical Twilight 6:11 AM EST 7:34 PM EST
Moon 6:08 PM EST (2/7) 7:17 AM EST (2/7)
Length of Visible Light 11h 06m
Length of Day
10h 05m
Full, 100% of the Moon is Illuminated
Feb 7
Full
Feb 7
Full
Feb 14
Last Quarter
Feb 21
New
Feb 29
First Quarter

Hourly Weather History & Observations

Time (EST) Temp. Windchill Dew Point Humidity Pressure Visibility Wind Dir Wind Speed Gust Speed Precip Events Conditions
12:01 AM 33.8 °F 30.8 °F 26.6 °F 75% 30.09 in 10.0 mi WNW 3.5 mph - N/A   Overcast
12:22 AM 33.8 °F 29.6 °F 26.6 °F 75% 30.09 in 10.0 mi WNW 4.6 mph - N/A   Overcast
12:29 AM 32.0 °F 27.5 °F 26.6 °F 80% 30.10 in 10.0 mi WNW 4.6 mph - N/A   Overcast
12:41 AM 32.0 °F 27.5 °F 26.6 °F 80% 30.10 in 10.0 mi WNW 4.6 mph - N/A   Overcast
12:53 AM 32.0 °F 28.7 °F 27.0 °F 82% 30.14 in 10.0 mi WNW 3.5 mph - N/A   Overcast
1:53 AM 33.1 °F 30.0 °F 27.0 °F 78% 30.15 in 10.0 mi NW 3.5 mph - N/A   Overcast
2:53 AM 32.0 °F 25.6 °F 26.1 °F 79% 30.18 in 9.0 mi North 6.9 mph - 0.00 in Snow Light Snow
3:44 AM 32.0 °F 23.6 °F 26.6 °F 80% 30.14 in 4.0 mi NNW 10.4 mph - 0.00 in Snow Light Snow
3:53 AM 32.0 °F 24.2 °F 27.0 °F 82% 30.18 in 9.0 mi North 9.2 mph - 0.00 in   Overcast
4:17 AM 30.2 °F 19.8 °F 24.8 °F 80% 30.16 in 10.0 mi NNE 13.8 mph 18.4 mph N/A   Overcast
4:53 AM 30.9 °F 23.5 °F 23.0 °F 72% 30.21 in 10.0 mi NNE 8.1 mph - N/A   Overcast
5:53 AM 30.0 °F 20.0 °F 21.0 °F 69% 30.23 in 10.0 mi North 12.7 mph - N/A   Overcast
6:53 AM 28.9 °F 19.8 °F 21.0 °F 72% 30.26 in 10.0 mi North 10.4 mph 18.4 mph N/A   Overcast
7:53 AM 28.0 °F 19.3 °F 21.0 °F 75% 30.29 in 10.0 mi North 9.2 mph - N/A   Overcast
8:53 AM 27.0 °F 18.0 °F 19.9 °F 75% 30.34 in 10.0 mi North 9.2 mph - N/A   Overcast
9:53 AM 27.0 °F 18.0 °F 19.9 °F 75% 30.36 in 10.0 mi NNE 9.2 mph - N/A   Overcast
10:53 AM 26.1 °F 14.5 °F 18.0 °F 71% 30.38 in 10.0 mi NNW 13.8 mph - N/A   Overcast
11:53 AM 27.0 °F 16.1 °F 17.1 °F 66% 30.38 in 10.0 mi North 12.7 mph 17.3 mph N/A   Overcast
12:50 PM 28.4 °F 19.7 °F 15.8 °F 59% 30.33 in 10.0 mi NW 9.2 mph - N/A   Scattered Clouds
12:53 PM 28.0 °F 19.3 °F 17.1 °F 63% 30.38 in 10.0 mi NW 9.2 mph - N/A   Scattered Clouds
1:53 PM 28.9 °F 18.6 °F 12.0 °F 49% 30.38 in 10.0 mi NNW 12.7 mph - N/A   Clear
2:53 PM 28.9 °F 19.8 °F 9.0 °F 43% 30.38 in 10.0 mi NNW 10.4 mph - N/A   Clear
3:53 PM 28.9 °F 23.9 °F 6.1 °F 38% 30.38 in 10.0 mi North 4.6 mph - N/A   Clear
4:53 PM 28.9 °F 21.1 °F 3.9 °F 35% 30.38 in 10.0 mi NNW 8.1 mph - N/A   Clear
5:53 PM 26.1 °F 20.5 °F 1.9 °F 35% 30.40 in 10.0 mi North 4.6 mph - N/A   Clear
6:53 PM 23.0 °F - 1.9 °F 40% 30.42 in 10.0 mi Calm Calm - N/A   Clear
7:53 PM 21.0 °F 16.2 °F 3.0 °F 46% 30.42 in 10.0 mi North 3.5 mph - N/A   Clear
8:53 PM 19.0 °F 13.9 °F 6.1 °F 57% 30.43 in 10.0 mi NNW 3.5 mph - N/A   Clear
9:53 PM 17.1 °F 8.7 °F 7.0 °F 65% 30.43 in 10.0 mi NNW 5.8 mph - N/A   Clear
10:53 PM 16.0 °F - 6.1 °F 65% 30.43 in 10.0 mi Calm Calm - N/A   Clear
11:53 PM 14.0 °F - 6.1 °F 71% 30.42 in 10.0 mi Calm Calm - N/A   Clear